User: anonymous   Login
Location: Litvinovka
(48.6667°N, 34.3500°E)
Time: 14:32:06
(UTC+00:00)
Language:

Okean 1 Rocket - Orbit

View from above orbital plane
View from above orbital plane
View from above satellite
View from above satellite

Ground track
Ground track

The orbit data is extracted from the following two-line orbital elements,

1 19275U 88056B   20334.14847231  .00000130  00000-0  13049-4 0  9998
2 19275  82.5176 230.8307 0020516  17.3083 342.8826 14.82766748750103
Epoch (UTC): 29 November 2020 03:33:48
Eccentricity: 0.0020516
inclination: 82.5176°
perigee height: 606 km
apogee height: 635 km
right ascension of ascending node: 230.8307°
argument of perigee: 17.3083°
revolutions per day: 14.82766748
mean anomaly at epoch: 342.8826°
orbit number at epoch: 75010

The dashed part of the orbit path shows where the satellite is in the earth's shadow,  

DLR